| time (UTC) | temp F | wind direction | speed knots | gust knots | rain 1hr in | rain 24hr in | rain mn in | humidity % | barometer mb |
| 20260902024016 | 70 | 255 | 2.6 | 7.8 | 0.00 | 0.00 | 0.00 | 53 | 1014.3 |
| 20260902023017 | 70 | 242 | 2.6 | 9.6 | 0.00 | 0.00 | 0.00 | 52 | 1014.3 |
| 20260902022012 | 70 | 234 | 3.5 | 10.4 | 0.00 | 0.00 | 0.00 | 51 | 1014.1 |
| 20260902021033 | 71 | 254 | 3.5 | 8.7 | 0.00 | 0.00 | 0.00 | 49 | 1014.1 |
| 20260902020011 | 72 | 211 | 4.3 | 10.4 | 0.00 | 0.00 | 0.00 | 49 | 1014.1 |
| 20260902015028 | 72 | 214 | 3.5 | 9.6 | 0.00 | 0.00 | 0.00 | 48 | 1014.1 |
| 20260902014028 | 73 | 205 | 3.5 | 9.6 | 0.00 | 0.00 | 0.00 | 47 | 1013.9 |
| 20260902013022 | 74 | 255 | 4.3 | 13.9 | 0.00 | 0.00 | 0.00 | 46 | 1013.9 |
| 20260902012025 | 75 | 238 | 3.5 | 9.6 | 0.00 | 0.00 | 0.00 | 43 | 1013.8 |
| 20260902011025 | 76 | 214 | 2.6 | 7.8 | 0.00 | 0.00 | 0.00 | 43 | 1013.8 |
| 20260902010020 | 76 | 256 | 3.5 | 8.7 | 0.00 | 0.00 | 0.00 | 43 | 1013.8 |
| 20260902005018 | 76 | 200 | 5.2 | 9.6 | 0.00 | 0.00 | 0.00 | 42 | 1013.8 |
| 20260902004019 | 77 | 207 | 4.3 | 7.8 | 0.00 | 0.00 | 0.00 | 41 | 1013.8 |
| 20260902003021 | 77 | 208 | 3.5 | 11.3 | 0.00 | 0.00 | 0.00 | 40 | 1013.9 |
| 20260902002016 | 77 | 270 | 5.2 | 11.3 | 0.00 | 0.00 | 0.00 | 41 | 1013.8 |
| 20260902001031 | 78 | 180 | 2.6 | 8.7 | 0.00 | 0.00 | 0.00 | 41 | 1013.9 |
| 20260902000013 | 78 | 166 | 3.5 | 9.6 | 0.00 | 0.00 | 0.00 | 39 | 1014.1 |
| 20260901235028 | 78 | 247 | 4.3 | 7.8 | 0.00 | 0.00 | 0.00 | 39 | 1014.0 |
| 20260901234028 | 77 | 181 | 5.2 | 11.3 | 0.00 | 0.00 | 0.00 | 40 | 1014.2 |
| 20260901233027 | 77 | 166 | 3.5 | 9.6 | 0.00 | 0.00 | 0.00 | 39 | 1014.0 |
| 20260901232024 | 77 | 243 | 5.2 | 12.2 | 0.00 | 0.00 | 0.00 | 39 | 1014.2 |
| 20260901231024 | 78 | 168 | 3.5 | 9.6 | 0.00 | 0.00 | 0.00 | 39 | 1014.4 |
| 20260901230043 | 77 | 236 | 5.2 | 8.7 | 0.00 | 0.00 | 0.00 | 39 | 1014.4 |
| 20260901225041 | 77 | 122 | 4.3 | 8.7 | 0.00 | 0.00 | 0.00 | 42 | 1014.4 |
| 20260901224020 | 76 | 153 | 3.5 | 10.4 | 0.00 | 0.00 | 0.00 | 42 | 1014.6 |
| 20260901223017 | 76 | 214 | 1.7 | 8.7 | 0.00 | 0.00 | 0.00 | 44 | 1014.7 |
| 20260901222017 | 76 | 218 | 3.5 | 8.7 | 0.00 | 0.00 | 0.00 | 46 | 1014.8 |
| 20260901221019 | 75 | 207 | 2.6 | 7.8 | 0.00 | 0.00 | 0.00 | 47 | 1014.8 |
| 20260901220018 | 75 | 215 | 6.1 | 10.4 | 0.00 | 0.00 | 0.00 | 46 | 1015.0 |
| 20260901215016 | 74 | 231 | 3.5 | 10.4 | 0.00 | 0.00 | 0.00 | 48 | 1014.9 |
| 20260901214019 | 73 | 16 | 1.7 | 9.6 | 0.00 | 0.00 | 0.00 | 49 | 1014.9 |
| 20260901213024 | 74 | 144 | 4.3 | 9.6 | 0.00 | 0.00 | 0.00 | 48 | 1015.0 |
| 20260901212022 | 74 | 181 | 4.3 | 10.4 | 0.00 | 0.00 | 0.00 | 48 | 1015.0 |
| 20260901211022 | 73 | 294 | 5.2 | 8.7 | 0.00 | 0.00 | 0.00 | 48 | 1015.1 |
| 20260901210022 | 75 | 229 | 3.5 | 9.6 | 0.00 | 0.00 | 0.00 | 48 | 1015.4 |
| 20260901205014 | 75 | 194 | 2.6 | 4.3 | 0.00 | 0.00 | 0.00 | 51 | 1015.4 |
| 20260901204014 | 73 | 218 | 3.5 | 10.4 | 0.00 | 0.00 | 0.00 | 54 | 1015.5 |
| 20260901203020 | 73 | 235 | 4.3 | 9.6 | 0.00 | 0.00 | 0.00 | 52 | 1015.6 |
| 20260901202040 | 72 | 243 | 3.5 | 12.2 | 0.00 | 0.00 | 0.00 | 53 | 1015.8 |
| 20260901201020 | 73 | 209 | 2.6 | 9.6 | 0.00 | 0.00 | 0.00 | 52 | 1015.9 |
| 20260901200020 | 73 | 182 | 5.2 | 10.4 | 0.00 | 0.00 | 0.00 | 51 | 1015.8 |
| 20260901195017 | 73 | 216 | 4.3 | 12.2 | 0.00 | 0.00 | 0.00 | 52 | 1015.8 |
| 20260901194016 | 72 | 175 | 4.3 | 10.4 | 0.00 | 0.00 | 0.00 | 52 | 1015.9 |
| 20260901193041 | 72 | 122 | 2.6 | 8.7 | 0.00 | 0.00 | 0.00 | 53 | 1016.1 |
| 20260901192022 | 72 | 228 | 4.3 | 13.0 | 0.00 | 0.00 | 0.00 | 54 | 1016.1 |
| 20260901191019 | 71 | 188 | 4.3 | 8.7 | 0.00 | 0.00 | 0.00 | 54 | 1016.2 |
| 20260901190041 | 71 | 152 | 4.3 | 9.6 | 0.00 | 0.00 | 0.00 | 54 | 1016.4 |
| 20260901185016 | 70 | 240 | 4.3 | 11.3 | 0.00 | 0.00 | 0.00 | 59 | 1016.5 |
| 20260901184019 | 69 | 177 | 5.2 | 9.6 | 0.00 | 0.00 | 0.00 | 60 | 1016.5 |
| 20260901183021 | 69 | 218 | 2.6 | 7.0 | 0.00 | 0.00 | 0.00 | 61 | 1016.5 |
| 20260901182023 | 68 | 203 | 3.5 | 8.7 | 0.00 | 0.00 | 0.00 | 63 | 1016.5 |
| 20260901181022 | 69 | 226 | 2.6 | 8.7 | 0.00 | 0.00 | 0.00 | 62 | 1016.5 |
| 20260901180041 | 69 | 150 | 6.1 | 10.4 | 0.00 | 0.00 | 0.00 | 60 | 1016.3 |
| 20260901175020 | 70 | 169 | 4.3 | 10.4 | 0.00 | 0.00 | 0.00 | 60 | 1016.3 |
| 20260901174038 | 69 | 206 | 2.6 | 8.7 | 0.00 | 0.00 | 0.00 | 63 | 1016.4 |
| 20260901173019 | 67 | 119 | 3.5 | 8.7 | 0.00 | 0.00 | 0.00 | 64 | 1016.3 |
| 20260901172025 | 67 | 172 | 5.2 | 11.3 | 0.00 | 0.00 | 0.00 | 64 | 1016.5 |
| 20260901171027 | 67 | 192 | 4.3 | 9.6 | 0.00 | 0.00 | 0.00 | 64 | 1016.3 |
| 20260901170046 | 66 | 199 | 3.5 | 7.8 | 0.00 | 0.00 | 0.00 | 66 | 1016.1 |
| 20260901165041 | 66 | 168 | 7.0 | 10.4 | 0.00 | 0.00 | 0.00 | 63 | 1016.1 |
| 20260901164018 | 65 | 199 | 5.2 | 8.7 | 0.00 | 0.00 | 0.00 | 65 | 1016.0 |
| 20260901163039 | 65 | 193 | 6.1 | 11.3 | 0.00 | 0.00 | 0.00 | 67 | 1016.1 |
| 20260901162033 | 65 | 155 | 7.0 | 11.3 | 0.00 | 0.00 | 0.00 | 66 | 1016.0 |
| 20260901161014 | 65 | 202 | 2.6 | 10.4 | 0.00 | 0.00 | 0.00 | 68 | 1015.9 |
| 20260901160014 | 64 | 128 | 2.6 | 11.3 | 0.00 | 0.00 | 0.00 | 70 | 1015.8 |
| 20260901155010 | 64 | 132 | 6.1 | 10.4 | 0.00 | 0.00 | 0.00 | 71 | 1015.8 |
| 20260901154015 | 63 | 159 | 3.5 | 12.2 | 0.00 | 0.00 | 0.00 | 72 | 1015.6 |
| 20260901153019 | 63 | 201 | 3.5 | 8.7 | 0.00 | 0.00 | 0.00 | 72 | 1015.4 |
| 20260901152020 | 62 | 188 | 4.3 | 7.8 | 0.00 | 0.00 | 0.00 | 75 | 1015.2 |
| 20260901151016 | 61 | 140 | 4.3 | 8.7 | 0.00 | 0.00 | 0.00 | 76 | 1015.2 |
| 20260901150017 | 61 | 165 | 3.5 | 9.6 | 0.00 | 0.00 | 0.00 | 76 | 1015.1 |
| 20260901145017 | 61 | 171 | 3.5 | 7.8 | 0.00 | 0.00 | 0.00 | 76 | 1015.1 |
| 20260901144017 | 60 | 141 | 4.3 | 9.6 | 0.00 | 0.00 | 0.00 | 77 | 1015.1 |
| 20260901143018 | 60 | 99 | 4.3 | 9.6 | 0.00 | 0.00 | 0.00 | 78 | 1014.8 |
| 20260901142041 | 60 | 147 | 3.5 | 9.6 | 0.00 | 0.00 | 0.00 | 78 | 1014.5 |
| 20260901141017 | 60 | 176 | 3.5 | 7.8 | 0.00 | 0.00 | 0.00 | 77 | 1014.4 |
| 20260901140035 | 60 | 115 | 6.1 | 10.4 | 0.00 | 0.00 | 0.00 | 77 | 1014.2 |
| 20260901135019 | 60 | 137 | 4.3 | 8.7 | 0.00 | 0.00 | 0.00 | 78 | 1014.2 |
| 20260901134015 | 60 | 150 | 4.3 | 13.0 | 0.00 | 0.00 | 0.00 | 78 | 1014.0 |
| 20260901133037 | 60 | 105 | 2.6 | 8.7 | 0.00 | 0.00 | 0.00 | 79 | 1014.0 |
| 20260901132017 | 59 | 157 | 4.3 | 9.6 | 0.00 | 0.00 | 0.00 | 79 | 1013.9 |
| 20260901131031 | 59 | 134 | 4.3 | 8.7 | 0.00 | 0.00 | 0.00 | 79 | 1013.6 |
| 20260901130016 | 59 | 174 | 6.1 | 10.4 | 0.00 | 0.00 | 0.00 | 79 | 1013.6 |
| 20260901125020 | 59 | 146 | 3.5 | 9.6 | 0.00 | 0.00 | 0.00 | 79 | 1013.6 |
| 20260901124020 | 59 | 143 | 4.3 | 8.7 | 0.00 | 0.00 | 0.00 | 79 | 1013.5 |
| 20260901123019 | 59 | 116 | 4.3 | 8.7 | 0.00 | 0.00 | 0.00 | 79 | 1013.5 |
| 20260901122048 | 59 | 151 | 3.5 | 8.7 | 0.00 | 0.00 | 0.00 | 79 | 1013.4 |
| 20260901121024 | 59 | 107 | 4.3 | 9.6 | 0.00 | 0.00 | 0.00 | 79 | 1013.5 |
| 20260901120023 | 59 | 137 | 4.3 | 7.8 | 0.00 | 0.00 | 0.00 | 78 | 1013.5 |
| 20260901115024 | 59 | 164 | 3.5 | 9.6 | 0.00 | 0.00 | 0.00 | 79 | 1013.4 |
| 20260901114026 | 59 | 139 | 4.3 | 8.7 | 0.00 | 0.00 | 0.00 | 79 | 1013.3 |
| 20260901113013 | 59 | 138 | 4.3 | 7.8 | 0.00 | 0.00 | 0.00 | 79 | 1013.3 |
| 20260901112014 | 59 | 155 | 4.3 | 7.0 | 0.00 | 0.00 | 0.00 | 79 | 1013.1 |
| 20260901111014 | 59 | 120 | 3.5 | 7.0 | 0.00 | 0.00 | 0.00 | 79 | 1013.1 |
| 20260901110015 | 59 | 108 | 4.3 | 6.1 | 0.00 | 0.00 | 0.00 | 79 | 1013.2 |
| 20260901105037 | 59 | 127 | 4.3 | 7.8 | 0.00 | 0.00 | 0.00 | 78 | 1013.2 |
| 20260901104012 | 59 | 123 | 3.5 | 7.0 | 0.00 | 0.00 | 0.00 | 78 | 1013.1 |
| 20260901103013 | 59 | 139 | 4.3 | 7.0 | 0.00 | 0.00 | 0.00 | 78 | 1013.1 |
| 20260901102035 | 59 | 124 | 5.2 | 9.6 | 0.00 | 0.00 | 0.00 | 78 | 1012.9 |
| 20260901101011 | 59 | 132 | 6.1 | 10.4 | 0.00 | 0.00 | 0.00 | 79 | 1013.1 |
| 20260901100014 | 59 | 172 | 4.3 | 11.3 | 0.00 | 0.00 | 0.00 | 79 | 1013.2 |
| 20260901095014 | 59 | 139 | 4.3 | 8.7 | 0.00 | 0.00 | 0.00 | 79 | 1013.1 |
| 20260901094010 | 59 | 157 | 4.3 | 8.7 | 0.00 | 0.00 | 0.00 | 79 | 1013.2 |
| 20260901093013 | 59 | 169 | 6.1 | 7.8 | 0.00 | 0.00 | 0.00 | 79 | 1013.1 |
| 20260901092016 | 59 | 119 | 3.5 | 9.6 | 0.00 | 0.00 | 0.00 | 78 | 1013.1 |
| 20260901091033 | 59 | 103 | 5.2 | 10.4 | 0.00 | 0.00 | 0.00 | 78 | 1013.1 |
| 20260901090013 | 59 | 119 | 5.2 | 9.6 | 0.00 | 0.00 | 0.00 | 79 | 1013.3 |
| 20260901085016 | 59 | 95 | 7.0 | 10.4 | 0.00 | 0.00 | 0.00 | 79 | 1013.2 |
| 20260901084015 | 59 | 127 | 5.2 | 9.6 | 0.00 | 0.00 | 0.00 | 79 | 1013.2 |
| 20260901083019 | 59 | 155 | 5.2 | 8.7 | 0.00 | 0.00 | 0.00 | 79 | 1013.3 |
| 20260901082021 | 59 | 156 | 6.1 | 10.4 | 0.00 | 0.00 | 0.00 | 79 | 1013.2 |
| 20260901081027 | 59 | 143 | 5.2 | 9.6 | 0.00 | 0.00 | 0.00 | 79 | 1013.2 |
| 20260901080022 | 59 | 133 | 6.1 | 11.3 | 0.00 | 0.00 | 0.00 | 79 | 1013.1 |
| 20260901075022 | 59 | 113 | 6.1 | 9.6 | 0.00 | 0.00 | 0.00 | 79 | 1013.0 |
| 20260901074024 | 59 | 99 | 4.3 | 10.4 | 0.00 | 0.00 | 0.00 | 79 | 1013.1 |
| 20260901073019 | 60 | 139 | 7.0 | 12.2 | 0.00 | 0.00 | 0.00 | 79 | 1013.1 |
| 20260901072022 | 60 | 103 | 5.2 | 12.2 | 0.00 | 0.00 | 0.00 | 78 | 1013.0 |
| 20260901071023 | 60 | 124 | 4.3 | 9.6 | 0.00 | 0.00 | 0.00 | 78 | 1013.0 |
| 20260901070046 | 60 | 130 | 5.2 | 12.2 | 0.00 | 0.00 | 0.00 | 78 | 1013.0 |
| 20260901065034 | 60 | 134 | 5.2 | 9.6 | 0.00 | 0.00 | 0.00 | 78 | 1013.0 |
| 20260901064014 | 60 | 136 | 6.1 | 11.3 | 0.00 | 0.00 | 0.00 | 78 | 1013.0 |
| 20260901063017 | 60 | 141 | 4.3 | 9.6 | 0.00 | 0.00 | 0.00 | 78 | 1013.0 |
| 20260901062012 | 60 | 162 | 4.3 | 12.2 | 0.00 | 0.00 | 0.00 | 77 | 1013.0 |
| 20260901061011 | 60 | 146 | 5.2 | 9.6 | 0.00 | 0.00 | 0.00 | 77 | 1012.9 |
| 20260901060012 | 61 | 195 | 4.3 | 9.6 | 0.00 | 0.00 | 0.00 | 77 | 1012.8 |
| 20260901055048 | 61 | 145 | 5.2 | 9.6 | 0.00 | 0.00 | 0.00 | 76 | 1012.6 |
| 20260901054028 | 61 | 132 | 4.3 | 10.4 | 0.00 | 0.00 | 0.00 | 76 | 1012.7 |
| 20260901053052 | 61 | 125 | 4.3 | 7.8 | 0.00 | 0.00 | 0.00 | 75 | 1012.6 |
| 20260901052026 | 62 | 159 | 4.3 | 9.6 | 0.00 | 0.00 | 0.00 | 75 | 1012.7 |
| 20260901051024 | 62 | 158 | 3.5 | 8.7 | 0.00 | 0.00 | 0.00 | 75 | 1012.7 |
| 20260901050028 | 62 | 199 | 3.5 | 8.7 | 0.00 | 0.00 | 0.00 | 74 | 1012.7 |
| 20260901045024 | 63 | 154 | 4.3 | 10.4 | 0.00 | 0.00 | 0.00 | 74 | 1012.6 |
| 20260901044049 | 63 | 105 | 5.2 | 9.6 | 0.00 | 0.00 | 0.00 | 74 | 1012.5 |
| 20260901043028 | 63 | 151 | 6.1 | 9.6 | 0.00 | 0.00 | 0.00 | 73 | 1012.4 |
| 20260901042020 | 63 | 169 | 4.3 | 9.6 | 0.00 | 0.00 | 0.00 | 72 | 1012.4 |
| 20260901041022 | 64 | 186 | 4.3 | 10.4 | 0.00 | 0.00 | 0.00 | 72 | 1012.3 |
| 20260901040022 | 64 | 200 | 4.3 | 12.2 | 0.00 | 0.00 | 0.00 | 71 | 1012.3 |
| 20260901035012 | 64 | 182 | 4.3 | 8.7 | 0.00 | 0.00 | 0.00 | 71 | 1012.0 |
| 20260901034011 | 65 | 165 | 3.5 | 8.7 | 0.00 | 0.00 | 0.00 | 70 | 1011.8 |
| 20260901033016 | 65 | 218 | 3.5 | 8.7 | 0.00 | 0.00 | 0.00 | 69 | 1011.6 |
| 20260901032013 | 65 | 171 | 2.6 | 8.7 | 0.00 | 0.00 | 0.00 | 69 | 1011.5 |
| 20260901031012 | 66 | 239 | 7.0 | 10.4 | 0.00 | 0.00 | 0.00 | 68 | 1011.3 |
| 20260901030013 | 66 | 201 | 2.6 | 12.2 | 0.00 | 0.00 | 0.00 | 67 | 1011.1 |
| 20260901025011 | 67 | 159 | 4.3 | 11.3 | 0.00 | 0.00 | 0.00 | 66 | 1011.0 |